User: anonymous
Location: Deep South Regional Star Gaze
(30.9929°N, 90.9586°W)
Time: 10:42:26
(UTC-05:00)
Language:

MSX - Orbit

View from above orbital plane
View from above orbital plane
View from above satellite
View from above satellite

Ground track
Ground track

The orbit data is extracted from the following two-line orbital elements,

1 23851U 96024A   14225.85984219 0.00000100  00000-0  70538-4 0    01
2 23851  98.7836 269.3499 0007000 359.6590   0.3408 13.97984239    08
Epoch (UTC): 13 August 2014 20:38:10
Eccentricity: 0.0007000
inclination: 98.7836°
perigee height: 895 km
apogee height: 906 km
right ascension of ascending node: 269.3499°
argument of perigee: 359.6590°
revolutions per day: 13.97984239
mean anomaly at epoch: 0.3408°
orbit number at epoch: 0

The dashed part of the orbit path shows where the satellite is in the earth's shadow,  

DLR